Regional Weather Roundup
Issued by NWS

Home | Current Version | Previous Version | Text Only | Print | Product List | Glossary Off
Versions: 1 2 3 4 5 6 7 8 9 10 11 12 13 14 15 16 17 18 19 20 21 22 23 24 25 26 27 28 29 30 31 32 33 34 35 36 37 38 39 40 41 42 43 44 45 46 47 48 49 50

000
ASUS43 KIND 241059
RWRIN

WEATHER ROUNDUP FOR INDIANA
NATIONAL WEATHER SERVICE INDIANAPOLIS IN
700 AM EDT SAT JUN 24 2017

NOTE: "FAIR" INDICATES FEW OR NO CLOUDS BELOW 12,000 FEET WITH NO
SIGNIFICANT WEATHER AND/OR OBSTRUCTIONS TO VISIBILITY.

* - STATION DOES NOT REPORT WEATHER SUCH AS PRECIPITATION OR FOG.

+ - STATION NOT QUALITY CONTROLLED BY THE NATIONAL WEATHER SERVICE.
    USE DATA WITH CAUTION...ESPECIALLY DEWPOINT AND RELATIVE
    HUMIDITY OBSERVATIONS.

INZ001>003-010>013-019-020-241200-
NORTHWEST INDIANA

CITY           SKY/WX    TMP DP  RH WIND       PRES   REMARKS
GARY /AIRPORT/ CLEAR     63  55  77 W7        29.90S
KNOX *+        CLEAR     57  52  82 W6        29.90S
MICHIGAN CITY+ CLEAR     63  55  77 NW5       29.90R
MONTICELLO +   CLEAR     60  57  89 W5        29.92R

$$

LMZ046-743>745-241200-
SOUTHERN LAKE MICHIGAN

STATION/POSITION TIME  TEMP    WIND        PRES    WAVE
                       AIR SEA DIR/SP/G            HT
                 (UTC) (F)     (DEG/KT/KT) (MB)    (FT)
BURNS HARBOR     1040   65     280/ 11/ 13 1012.9R
MICHIGAN CITY    1030   65     280/ 18/ 20   N/A
5NW MICH CITY    1050   66 68  300/ 16/ 19   N/A     4

$$

INZ004-005-014>016-021>024-241200-
NORTH CENTRAL INDIANA

CITY           SKY/WX    TMP DP  RH WIND       PRES   REMARKS
GOSHEN         CLEAR     59  54  83 W6        29.89R
SOUTH BEND     CLEAR     60  56  86 W7        29.89R

$$

INZ006>009-017-018-025>027-241200-
NORTHEAST INDIANA

CITY           SKY/WX    TMP DP  RH WIND       PRES   REMARKS
FORT WAYNE     PTCLDY    62  56  80 W7        29.90R
KENDALLVILLE + CLEAR    N/A N/A N/A W6        29.89R

$$

INZ028-029-035-036-043>045-051>053-241200-
WEST CENTRAL INDIANA

CITY           SKY/WX    TMP DP  RH WIND       PRES   REMARKS
CRAWFORDSVL +  CLEAR     56  56 100 W5        29.95R
LAFAYETTE      CLEAR     57  57 100 W6        29.93R
TERRE HAUTE    CLEAR     62  56  80 NW6       29.96R

$$

INZ030>032-037>040-046>048-054>057-064-065-241200-
CENTRAL INDIANA

CITY           SKY/WX    TMP DP  RH WIND       PRES   REMARKS
GREENWOOD *+   PTCLDY    61  56  84 W5        29.95R
INDIANAPOLIS   CLOUDY    60  56  86 W6        29.94R
-EAGLE CREEK   CLOUDY    63  56  78 NW12      29.93R
KOKOMO +       MOCLDY    61  57  87 W8        29.93R
MT COMFORT *+  CLOUDY    59  55  88 NW7       29.93R
SHELBYVILLE    CLOUDY    62  57  83 SW3       29.94R

$$

INZ033-034-041-042-049-050-058-059-241200-
EAST CENTRAL INDIANA

CITY           SKY/WX    TMP DP  RH WIND       PRES   REMARKS
MUNCIE         PTCLDY    63  57  81 W6        29.92R

$$

INZ060-061-067>069-081>083-085>088-241200-
SOUTHWEST INDIANA

CITY           SKY/WX    TMP DP  RH WIND       PRES   REMARKS
EVANSVILLE     CLOUDY    64  59  83 NW5       30.00R
HUNTINGBURG *+ PTCLDY    63  59  87 W5        29.99R

$$

INZ062-063-066-070>080-084-089>092-241200-
SOUTH CENTRAL AND SOUTHEAST INDIANA

CITY           SKY/WX    TMP DP  RH WIND       PRES   REMARKS
BLOOMINGTON    CLOUDY    61  56  83 W3        29.96R
MADISON *+     CLEAR     63  61  94 W3        29.97R
SEYMOUR +      PTCLDY    64  61  88 CALM      29.95R

$$




USA.gov is the U.S. government's official web portal to all federal, state and local government web resources and services.